Year,Month,Day,Hour,Minute,Value (Times are PST for temperature in C)
2017,02,12,00,00,5.30
2017,02,12,00,01,5.30
2017,02,12,00,02,5.30
2017,02,12,00,03,5.20
2017,02,12,00,04,5.20
2017,02,12,00,05,5.20
2017,02,12,00,06,5.20
2017,02,12,00,07,5.20
2017,02,12,00,08,5.20
2017,02,12,00,09,5.20
2017,02,12,00,10,5.20
2017,02,12,00,11,5.10
2017,02,12,00,12,5.10
2017,02,12,00,13,5.10
2017,02,12,00,14,5.10
2017,02,12,00,15,5.10
2017,02,12,00,16,5.00
2017,02,12,00,17,5.00
2017,02,12,00,18,4.90
2017,02,12,00,19,4.80
2017,02,12,00,20,4.80
2017,02,12,00,21,4.80
2017,02,12,00,22,4.80
2017,02,12,00,23,4.80
2017,02,12,00,24,4.80
2017,02,12,00,25,4.80
2017,02,12,00,26,4.80
2017,02,12,00,27,4.80
2017,02,12,00,28,4.80
2017,02,12,00,29,4.80
2017,02,12,00,30,4.90
2017,02,12,00,31,4.90
2017,02,12,00,32,4.90
2017,02,12,00,33,4.90
2017,02,12,00,34,4.90
2017,02,12,00,35,4.90
2017,02,12,00,36,4.90
2017,02,12,00,37,4.90
2017,02,12,00,38,4.90
2017,02,12,00,39,4.90
2017,02,12,00,40,4.90
2017,02,12,00,41,4.90
2017,02,12,00,42,5.00
2017,02,12,00,43,5.00
2017,02,12,00,44,5.00
2017,02,12,00,45,5.10
2017,02,12,00,46,5.10
2017,02,12,00,47,5.20
2017,02,12,00,48,5.20
2017,02,12,00,49,5.20
2017,02,12,00,50,5.20
2017,02,12,00,51,5.30
2017,02,12,00,52,5.30
2017,02,12,00,53,5.30
2017,02,12,00,54,5.40
2017,02,12,00,55,5.40
2017,02,12,00,56,5.40
2017,02,12,00,57,5.40
2017,02,12,00,58,5.40
2017,02,12,00,59,5.40
2017,02,12,01,00,5.40
2017,02,12,01,01,5.40
2017,02,12,01,02,5.40
2017,02,12,01,03,5.40
2017,02,12,01,04,5.40
2017,02,12,01,05,5.40
2017,02,12,01,06,5.50
2017,02,12,01,07,5.50
2017,02,12,01,08,5.50
2017,02,12,01,09,5.50
2017,02,12,01,10,5.50
2017,02,12,01,11,5.40
2017,02,12,01,12,5.40
2017,02,12,01,13,5.40
2017,02,12,01,14,5.40
2017,02,12,01,15,5.40
2017,02,12,01,16,5.40
2017,02,12,01,17,5.40
2017,02,12,01,18,5.40
2017,02,12,01,19,5.40
2017,02,12,01,20,5.40
2017,02,12,01,21,5.40
2017,02,12,01,22,5.40
2017,02,12,01,23,5.40
2017,02,12,01,24,5.40
2017,02,12,01,25,5.40
2017,02,12,01,26,5.40
2017,02,12,01,27,5.40
2017,02,12,01,28,5.40
2017,02,12,01,29,5.50
2017,02,12,01,30,5.50
2017,02,12,01,31,5.50
2017,02,12,01,32,5.50
2017,02,12,01,33,5.50
2017,02,12,01,34,5.50
2017,02,12,01,35,5.50
2017,02,12,01,36,5.60
2017,02,12,01,37,5.60
2017,02,12,01,38,5.60
2017,02,12,01,39,5.60
2017,02,12,01,40,5.60
2017,02,12,01,41,5.60
2017,02,12,01,42,5.60
2017,02,12,01,43,5.60
2017,02,12,01,44,5.60
2017,02,12,01,45,5.60
2017,02,12,01,46,5.60
2017,02,12,01,47,5.60
2017,02,12,01,48,5.60
2017,02,12,01,49,5.60
2017,02,12,01,50,5.60
2017,02,12,01,51,5.60
2017,02,12,01,52,5.60
2017,02,12,01,53,5.60
2017,02,12,01,54,5.60
2017,02,12,01,55,5.60
2017,02,12,01,56,5.60
2017,02,12,01,57,5.60
2017,02,12,01,58,5.60
2017,02,12,01,59,5.60
2017,02,12,02,00,5.60
2017,02,12,02,01,5.60
2017,02,12,02,02,5.60
2017,02,12,02,03,5.60
2017,02,12,02,04,5.60
2017,02,12,02,05,5.60
2017,02,12,02,06,5.60
2017,02,12,02,07,5.50
2017,02,12,02,08,5.50
2017,02,12,02,09,5.50
2017,02,12,02,10,5.50
2017,02,12,02,11,5.50
2017,02,12,02,12,5.50
2017,02,12,02,13,5.50
2017,02,12,02,14,5.50
2017,02,12,02,15,5.50
2017,02,12,02,16,5.50
2017,02,12,02,17,5.40
2017,02,12,02,18,5.40
2017,02,12,02,19,5.40
2017,02,12,02,20,5.40
2017,02,12,02,21,5.50
2017,02,12,02,22,5.50
2017,02,12,02,23,5.50
2017,02,12,02,24,5.50
2017,02,12,02,25,5.50
2017,02,12,02,26,5.50
2017,02,12,02,27,5.50
2017,02,12,02,28,5.50
2017,02,12,02,29,5.50
2017,02,12,02,30,5.60
2017,02,12,02,31,5.60
2017,02,12,02,32,5.60
2017,02,12,02,33,5.60
2017,02,12,02,34,5.60
2017,02,12,02,35,5.60
2017,02,12,02,36,5.60
2017,02,12,02,37,5.60
2017,02,12,02,38,5.60
2017,02,12,02,39,5.60
2017,02,12,02,40,5.60
2017,02,12,02,41,5.60
2017,02,12,02,42,5.60
2017,02,12,02,43,5.60
2017,02,12,02,44,5.60
2017,02,12,02,45,5.60
2017,02,12,02,46,5.50
2017,02,12,02,47,5.50
2017,02,12,02,48,5.50
2017,02,12,02,49,5.50
2017,02,12,02,50,5.50
2017,02,12,02,51,5.50
2017,02,12,02,52,5.50
2017,02,12,02,53,5.40
2017,02,12,02,54,5.40
2017,02,12,02,55,5.40
2017,02,12,02,56,5.50
2017,02,12,02,57,5.50
2017,02,12,02,58,5.40
2017,02,12,02,59,5.50
2017,02,12,03,00,5.40
2017,02,12,03,01,5.40
2017,02,12,03,02,5.40
2017,02,12,03,03,5.40
2017,02,12,03,04,5.40
2017,02,12,03,05,5.40
2017,02,12,03,06,5.30
2017,02,12,03,07,5.30
2017,02,12,03,08,5.30
2017,02,12,03,09,5.30
2017,02,12,03,10,5.30
2017,02,12,03,11,5.30
2017,02,12,03,12,5.30
2017,02,12,03,13,5.30
2017,02,12,03,14,5.30
2017,02,12,03,15,5.30
2017,02,12,03,16,5.30
2017,02,12,03,17,5.30
2017,02,12,03,18,5.30
2017,02,12,03,19,5.30
2017,02,12,03,20,5.30
2017,02,12,03,21,5.30
2017,02,12,03,22,5.30
2017,02,12,03,23,5.30
2017,02,12,03,24,5.30
2017,02,12,03,25,5.30
2017,02,12,03,26,5.30
2017,02,12,03,27,5.30
2017,02,12,03,28,5.30
2017,02,12,03,29,5.30
2017,02,12,03,30,5.30
2017,02,12,03,31,5.30
2017,02,12,03,32,5.20
2017,02,12,03,33,5.20
2017,02,12,03,34,5.20
2017,02,12,03,35,5.20
2017,02,12,03,36,5.20
2017,02,12,03,37,5.20
2017,02,12,03,38,5.20
2017,02,12,03,39,5.20
2017,02,12,03,40,5.20
2017,02,12,03,41,5.20
2017,02,12,03,42,5.20
2017,02,12,03,43,5.20
2017,02,12,03,44,5.20
2017,02,12,03,45,5.20
2017,02,12,03,46,5.20
2017,02,12,03,47,5.30
2017,02,12,03,48,5.30
2017,02,12,03,49,5.30
2017,02,12,03,50,5.30
2017,02,12,03,51,5.30
2017,02,12,03,52,5.30
2017,02,12,03,53,5.30
2017,02,12,03,54,5.30
2017,02,12,03,55,5.30
2017,02,12,03,56,5.30
2017,02,12,03,57,5.30
2017,02,12,03,58,5.40
2017,02,12,03,59,5.40
2017,02,12,04,00,5.40
2017,02,12,04,01,5.40
2017,02,12,04,02,5.50
2017,02,12,04,03,5.50
2017,02,12,04,04,5.50
2017,02,12,04,05,5.50
2017,02,12,04,06,5.50
2017,02,12,04,07,5.50
2017,02,12,04,08,5.50
2017,02,12,04,09,5.40
2017,02,12,04,10,5.40
2017,02,12,04,11,5.40
2017,02,12,04,12,5.40
2017,02,12,04,13,5.40
2017,02,12,04,14,5.40
2017,02,12,04,15,5.40
2017,02,12,04,16,5.40
2017,02,12,04,17,5.40
2017,02,12,04,18,5.40
2017,02,12,04,19,5.30
2017,02,12,04,20,5.30
2017,02,12,04,21,5.30
2017,02,12,04,22,5.30
2017,02,12,04,23,5.30
2017,02,12,04,24,5.30
2017,02,12,04,25,5.30
2017,02,12,04,26,5.30
2017,02,12,04,27,5.20
2017,02,12,04,28,5.20
2017,02,12,04,29,5.20
2017,02,12,04,30,5.20
2017,02,12,04,31,5.20
2017,02,12,04,32,5.20
2017,02,12,04,33,5.10
2017,02,12,04,34,5.10
2017,02,12,04,35,5.10
2017,02,12,04,36,5.10
2017,02,12,04,37,5.10
2017,02,12,04,38,5.10
2017,02,12,04,39,5.10
2017,02,12,04,40,5.10
2017,02,12,04,41,5.10
2017,02,12,04,42,5.10
2017,02,12,04,43,5.10
2017,02,12,04,44,5.10
2017,02,12,04,45,5.10
2017,02,12,04,46,5.10
2017,02,12,04,47,5.10
2017,02,12,04,48,5.10
2017,02,12,04,49,5.10
2017,02,12,04,50,5.10
2017,02,12,04,51,5.10
2017,02,12,04,52,5.10
2017,02,12,04,53,5.20
2017,02,12,04,54,5.20
2017,02,12,04,55,5.10
2017,02,12,04,56,5.10
2017,02,12,04,57,5.10
2017,02,12,04,58,5.20
2017,02,12,04,59,5.10
2017,02,12,05,00,5.10
2017,02,12,05,01,5.20
2017,02,12,05,02,5.20
2017,02,12,05,03,5.20
2017,02,12,05,04,5.20
2017,02,12,05,05,5.20
2017,02,12,05,06,5.20
2017,02,12,05,07,5.20
2017,02,12,05,08,5.20
2017,02,12,05,09,5.20
2017,02,12,05,10,5.20
2017,02,12,05,11,5.20
2017,02,12,05,12,5.20
2017,02,12,05,13,5.20
2017,02,12,05,14,5.20
2017,02,12,05,15,5.20
2017,02,12,05,16,5.20
2017,02,12,05,17,5.20
2017,02,12,05,18,5.20
2017,02,12,05,19,5.10
2017,02,12,05,20,5.20
2017,02,12,05,21,5.20
2017,02,12,05,22,5.20
2017,02,12,05,23,5.20
2017,02,12,05,24,5.20
2017,02,12,05,25,5.20
2017,02,12,05,26,5.20
2017,02,12,05,27,5.20
2017,02,12,05,28,5.20
2017,02,12,05,29,5.20
2017,02,12,05,30,5.20
2017,02,12,05,31,5.20
2017,02,12,05,32,5.20
2017,02,12,05,33,5.20
2017,02,12,05,34,5.20
2017,02,12,05,35,5.20
2017,02,12,05,36,5.20
2017,02,12,05,37,5.10
2017,02,12,05,38,5.20
2017,02,12,05,39,5.20
2017,02,12,05,40,5.20
2017,02,12,05,41,5.20
2017,02,12,05,42,5.20
2017,02,12,05,43,5.20
2017,02,12,05,44,5.20
2017,02,12,05,45,5.20
2017,02,12,05,46,5.20
2017,02,12,05,47,5.20
2017,02,12,05,48,5.20
2017,02,12,05,49,5.20
2017,02,12,05,50,5.20
2017,02,12,05,51,5.20
2017,02,12,05,52,5.20
2017,02,12,05,53,5.20
2017,02,12,05,54,5.20
2017,02,12,05,55,5.20
2017,02,12,05,56,5.20
2017,02,12,05,57,5.20
2017,02,12,05,58,5.20
2017,02,12,05,59,5.20
2017,02,12,06,00,5.20
2017,02,12,06,01,5.20
2017,02,12,06,02,5.20
2017,02,12,06,03,5.20
2017,02,12,06,04,5.20
2017,02,12,06,05,5.10
2017,02,12,06,06,5.10
2017,02,12,06,07,5.10
2017,02,12,06,08,5.10
2017,02,12,06,09,5.10
2017,02,12,06,10,5.10
2017,02,12,06,11,5.10
2017,02,12,06,12,5.20
2017,02,12,06,13,5.20
2017,02,12,06,14,5.20
2017,02,12,06,15,5.20
2017,02,12,06,16,5.20
2017,02,12,06,17,5.20
2017,02,12,06,18,5.20
2017,02,12,06,19,5.20
2017,02,12,06,20,5.20
2017,02,12,06,21,5.20
2017,02,12,06,22,5.20
2017,02,12,06,23,5.20
2017,02,12,06,24,5.20
2017,02,12,06,25,5.20
2017,02,12,06,26,5.20
2017,02,12,06,27,5.20
2017,02,12,06,28,5.20
2017,02,12,06,29,5.20
2017,02,12,06,30,5.20
2017,02,12,06,31,5.20
2017,02,12,06,32,5.20
2017,02,12,06,33,5.20
2017,02,12,06,34,5.20
2017,02,12,06,35,5.30
2017,02,12,06,36,5.30
2017,02,12,06,37,5.30
2017,02,12,06,38,5.30
2017,02,12,06,39,5.30
2017,02,12,06,40,5.30
2017,02,12,06,41,5.30
2017,02,12,06,42,5.30
2017,02,12,06,43,5.30
2017,02,12,06,44,5.30
2017,02,12,06,45,5.30
2017,02,12,06,46,5.30
2017,02,12,06,47,5.30
2017,02,12,06,48,5.30
2017,02,12,06,49,5.30
2017,02,12,06,50,5.30
2017,02,12,06,51,5.30
2017,02,12,06,52,5.20
2017,02,12,06,53,5.30
2017,02,12,06,54,5.30
2017,02,12,06,55,5.30
2017,02,12,06,56,5.30
2017,02,12,06,57,5.30
2017,02,12,06,58,5.30
2017,02,12,06,59,5.30
2017,02,12,07,00,5.30
2017,02,12,07,01,5.30
2017,02,12,07,02,5.30
2017,02,12,07,03,5.30
2017,02,12,07,04,5.30
2017,02,12,07,05,5.20
2017,02,12,07,06,5.20
2017,02,12,07,07,5.20
2017,02,12,07,08,5.20
2017,02,12,07,09,5.20
2017,02,12,07,10,5.20
2017,02,12,07,11,5.20
2017,02,12,07,12,5.20
2017,02,12,07,13,5.20
2017,02,12,07,14,5.20
2017,02,12,07,15,5.20
2017,02,12,07,16,5.20
2017,02,12,07,17,5.20
2017,02,12,07,18,5.20
2017,02,12,07,19,5.20
2017,02,12,07,20,5.20
2017,02,12,07,21,5.20
2017,02,12,07,22,5.20
2017,02,12,07,23,5.20
2017,02,12,07,24,5.20
2017,02,12,07,25,5.20
2017,02,12,07,26,5.20
2017,02,12,07,27,5.20
2017,02,12,07,28,5.20
2017,02,12,07,29,5.20
2017,02,12,07,30,5.20
2017,02,12,07,31,5.20
2017,02,12,07,32,5.20
2017,02,12,07,33,5.20
2017,02,12,07,34,5.20
2017,02,12,07,35,5.20
2017,02,12,07,36,5.20
2017,02,12,07,37,5.20
2017,02,12,07,38,5.20
2017,02,12,07,39,5.20
2017,02,12,07,40,5.20
2017,02,12,07,41,5.10
2017,02,12,07,42,5.10
2017,02,12,07,43,5.10
2017,02,12,07,44,5.10
2017,02,12,07,45,5.10
2017,02,12,07,46,5.10
2017,02,12,07,47,5.10
2017,02,12,07,48,5.10
2017,02,12,07,49,5.00
2017,02,12,07,50,5.00
2017,02,12,07,51,5.00
2017,02,12,07,52,5.00
2017,02,12,07,53,5.00
2017,02,12,07,54,4.90
2017,02,12,07,55,4.90
2017,02,12,07,56,4.80
2017,02,12,07,57,4.80
2017,02,12,07,58,4.80
2017,02,12,07,59,4.70
2017,02,12,08,00,4.70
2017,02,12,08,01,4.70
2017,02,12,08,02,4.70
2017,02,12,08,03,4.60
2017,02,12,08,04,4.60
2017,02,12,08,05,4.60
2017,02,12,08,06,4.60
2017,02,12,08,07,4.50
2017,02,12,08,08,4.50
2017,02,12,08,09,4.50
2017,02,12,08,10,4.50
2017,02,12,08,11,4.40
2017,02,12,08,12,4.40
2017,02,12,08,13,4.40
2017,02,12,08,14,4.40
2017,02,12,08,15,4.30
2017,02,12,08,16,4.30
2017,02,12,08,17,4.30
2017,02,12,08,18,4.30
2017,02,12,08,19,4.30
2017,02,12,08,20,4.30
2017,02,12,08,21,4.30
2017,02,12,08,22,4.30
2017,02,12,08,23,4.30
2017,02,12,08,24,4.30
2017,02,12,08,25,4.30
2017,02,12,08,26,4.30
2017,02,12,08,27,4.30
2017,02,12,08,28,4.40
2017,02,12,08,29,4.40
2017,02,12,08,30,4.50
2017,02,12,08,31,4.60
2017,02,12,08,32,4.60
2017,02,12,08,33,4.60
2017,02,12,08,34,4.60
2017,02,12,08,35,4.60
2017,02,12,08,36,4.70
2017,02,12,08,37,4.70
2017,02,12,08,38,4.70
2017,02,12,08,39,4.70
2017,02,12,08,40,4.70
2017,02,12,08,41,4.80
2017,02,12,08,42,4.90
2017,02,12,08,43,4.90
2017,02,12,08,44,5.00
2017,02,12,08,45,5.10
2017,02,12,08,46,5.10
2017,02,12,08,47,5.10
2017,02,12,08,48,5.10
2017,02,12,08,49,5.20
2017,02,12,08,50,5.20
2017,02,12,08,51,5.20
2017,02,12,08,52,5.20
2017,02,12,08,53,5.20
2017,02,12,08,54,5.30
2017,02,12,08,55,5.30
2017,02,12,08,56,5.30
2017,02,12,08,57,5.30
2017,02,12,08,58,5.30
2017,02,12,08,59,5.40
2017,02,12,09,00,5.40
2017,02,12,09,01,5.40
2017,02,12,09,02,5.40
2017,02,12,09,03,5.50
2017,02,12,09,04,5.50
2017,02,12,09,05,5.50
2017,02,12,09,06,5.50
2017,02,12,09,07,5.50
2017,02,12,09,08,5.60
2017,02,12,09,09,5.60
2017,02,12,09,10,5.60
2017,02,12,09,11,5.60
2017,02,12,09,12,5.60
2017,02,12,09,13,5.60
2017,02,12,09,14,5.60
2017,02,12,09,15,5.60
2017,02,12,09,16,5.60
2017,02,12,09,17,5.60
2017,02,12,09,18,5.60
2017,02,12,09,19,5.60
2017,02,12,09,20,5.60
2017,02,12,09,21,5.60
2017,02,12,09,22,5.60
2017,02,12,09,23,5.60
2017,02,12,09,24,5.60
2017,02,12,09,25,5.60
2017,02,12,09,26,5.60
2017,02,12,09,27,5.60
2017,02,12,09,28,5.60
2017,02,12,09,29,5.60
2017,02,12,09,30,5.60
2017,02,12,09,31,5.60
2017,02,12,09,32,5.60
2017,02,12,09,33,5.70
2017,02,12,09,34,5.70
2017,02,12,09,35,5.60
2017,02,12,09,36,5.60
2017,02,12,09,37,5.60
2017,02,12,09,38,5.60
2017,02,12,09,39,5.60
2017,02,12,09,40,5.60
2017,02,12,09,41,5.60
2017,02,12,09,42,5.60
2017,02,12,09,43,5.60
2017,02,12,09,44,5.60
2017,02,12,09,45,5.60
2017,02,12,09,46,5.60
2017,02,12,09,47,5.60
2017,02,12,09,48,5.60
2017,02,12,09,49,5.60
2017,02,12,09,50,5.60
2017,02,12,09,51,5.60
2017,02,12,09,52,5.60
2017,02,12,09,53,5.60
2017,02,12,09,54,5.60
2017,02,12,09,55,5.60
2017,02,12,09,56,5.60
2017,02,12,09,57,5.60
2017,02,12,09,58,5.60
2017,02,12,09,59,5.70
2017,02,12,10,00,5.70
2017,02,12,10,01,5.70
2017,02,12,10,02,5.70
2017,02,12,10,03,5.70
2017,02,12,10,04,5.70
2017,02,12,10,05,5.70
2017,02,12,10,06,5.70
2017,02,12,10,07,5.60
2017,02,12,10,08,5.60
2017,02,12,10,09,5.60
2017,02,12,10,10,5.60
2017,02,12,10,11,5.70
2017,02,12,10,12,5.70
2017,02,12,10,13,5.70
2017,02,12,10,14,5.70
2017,02,12,10,15,5.70
2017,02,12,10,16,5.70
2017,02,12,10,17,5.70
2017,02,12,10,18,5.70
2017,02,12,10,19,5.70
2017,02,12,10,20,5.70
2017,02,12,10,21,5.70
2017,02,12,10,22,5.70
2017,02,12,10,23,5.70
2017,02,12,10,24,5.70
2017,02,12,10,25,5.70
2017,02,12,10,26,5.70
2017,02,12,10,27,5.70
2017,02,12,10,28,5.70
2017,02,12,10,29,5.70
2017,02,12,10,30,5.70
2017,02,12,10,31,5.70
2017,02,12,10,32,5.70
2017,02,12,10,33,5.70
2017,02,12,10,34,5.70
2017,02,12,10,35,5.70
2017,02,12,10,36,5.80
2017,02,12,10,37,5.80
2017,02,12,10,38,5.80
2017,02,12,10,39,5.80
2017,02,12,10,40,5.80
2017,02,12,10,41,5.80
2017,02,12,10,42,5.80
2017,02,12,10,43,5.80
2017,02,12,10,44,5.80
2017,02,12,10,45,5.80
2017,02,12,10,46,5.80
2017,02,12,10,47,5.80
2017,02,12,10,48,5.80
2017,02,12,10,49,5.80
2017,02,12,10,50,5.80
2017,02,12,10,51,5.80
2017,02,12,10,52,5.80
2017,02,12,10,53,5.80
2017,02,12,10,54,5.80
2017,02,12,10,55,5.80
2017,02,12,10,56,5.80
2017,02,12,10,57,5.80
2017,02,12,10,58,5.90
2017,02,12,10,59,5.90
2017,02,12,11,00,5.90
2017,02,12,11,01,5.90
2017,02,12,11,02,5.90
2017,02,12,11,03,5.90
2017,02,12,11,04,5.90
2017,02,12,11,05,5.90
2017,02,12,11,06,5.90
2017,02,12,11,07,5.90
2017,02,12,11,08,5.90
2017,02,12,11,09,5.90
2017,02,12,11,10,5.90
2017,02,12,11,11,5.90
2017,02,12,11,12,5.90
2017,02,12,11,13,5.90
2017,02,12,11,14,5.90
2017,02,12,11,15,5.90
2017,02,12,11,16,5.90
2017,02,12,11,17,6.00
2017,02,12,11,18,6.00
2017,02,12,11,19,6.00
2017,02,12,11,20,6.00
2017,02,12,11,21,6.00
2017,02,12,11,22,6.00
2017,02,12,11,23,6.00
2017,02,12,11,24,6.00
2017,02,12,11,25,6.00
2017,02,12,11,26,6.00
2017,02,12,11,27,6.00
2017,02,12,11,28,6.00
2017,02,12,11,29,6.00
2017,02,12,11,30,6.00
2017,02,12,11,31,6.00
2017,02,12,11,32,6.00
2017,02,12,11,33,6.00
2017,02,12,11,34,6.00
2017,02,12,11,35,6.10
2017,02,12,11,36,6.00
2017,02,12,11,37,6.00
2017,02,12,11,38,6.00
2017,02,12,11,39,6.00
2017,02,12,11,40,6.00
2017,02,12,11,41,6.00
2017,02,12,11,42,6.00
2017,02,12,11,43,6.00
2017,02,12,11,44,6.10
2017,02,12,11,45,6.10
2017,02,12,11,46,6.10
2017,02,12,11,47,6.10
2017,02,12,11,48,6.10
2017,02,12,11,49,6.10
2017,02,12,11,50,6.10
2017,02,12,11,51,6.10
2017,02,12,11,52,6.10
2017,02,12,11,53,6.10
2017,02,12,11,54,6.10
2017,02,12,11,55,6.10
2017,02,12,11,56,6.10
2017,02,12,11,57,6.10
2017,02,12,11,58,6.10
2017,02,12,11,59,6.10
2017,02,12,12,00,6.10
2017,02,12,12,01,6.10
2017,02,12,12,02,6.10
2017,02,12,12,03,6.10
2017,02,12,12,04,6.10
2017,02,12,12,05,6.10
2017,02,12,12,06,6.10
2017,02,12,12,07,6.20
2017,02,12,12,08,6.20
2017,02,12,12,09,6.10
2017,02,12,12,10,6.20
2017,02,12,12,11,6.20
2017,02,12,12,12,6.20
2017,02,12,12,13,6.20
2017,02,12,12,14,6.20
2017,02,12,12,15,6.20
2017,02,12,12,16,6.20
2017,02,12,12,17,6.30
2017,02,12,12,18,6.30
2017,02,12,12,19,6.30
2017,02,12,12,20,6.30
2017,02,12,12,21,6.30
2017,02,12,12,22,6.30
2017,02,12,12,23,6.30
2017,02,12,12,24,6.30
2017,02,12,12,25,6.30
2017,02,12,12,26,6.40
2017,02,12,12,27,6.40
2017,02,12,12,28,6.40
2017,02,12,12,29,6.40
2017,02,12,12,30,6.40
2017,02,12,12,31,6.40
2017,02,12,12,32,6.50
2017,02,12,12,33,6.50
2017,02,12,12,34,6.60
2017,02,12,12,35,6.60
2017,02,12,12,36,6.70
2017,02,12,12,37,6.70
2017,02,12,12,38,6.70
2017,02,12,12,39,6.70
2017,02,12,12,40,6.70
2017,02,12,12,41,6.70
2017,02,12,12,42,6.70
2017,02,12,12,43,6.70
2017,02,12,12,44,6.70
2017,02,12,12,45,6.70
2017,02,12,12,46,6.70
2017,02,12,12,47,6.70
2017,02,12,12,48,6.70
2017,02,12,12,49,6.70
2017,02,12,12,50,6.70
2017,02,12,12,51,6.70
2017,02,12,12,52,6.80
2017,02,12,12,53,6.80
2017,02,12,12,54,6.80
2017,02,12,12,55,6.80
2017,02,12,12,56,6.80
2017,02,12,12,57,6.80
2017,02,12,12,58,6.80
2017,02,12,12,59,6.80
2017,02,12,13,00,6.80
2017,02,12,13,01,6.80
2017,02,12,13,02,6.80
2017,02,12,13,03,6.80
2017,02,12,13,04,6.80
2017,02,12,13,05,6.80
2017,02,12,13,06,6.80
2017,02,12,13,07,6.80
2017,02,12,13,08,6.80
2017,02,12,13,09,6.80
2017,02,12,13,10,6.80
2017,02,12,13,11,6.80
2017,02,12,13,12,6.80
2017,02,12,13,13,6.80
2017,02,12,13,14,6.80
2017,02,12,13,15,6.80
2017,02,12,13,16,6.80
2017,02,12,13,17,6.80
2017,02,12,13,18,6.80
2017,02,12,13,19,6.80
2017,02,12,13,20,6.80
2017,02,12,13,21,6.80
2017,02,12,13,22,6.80
2017,02,12,13,23,6.80
2017,02,12,13,24,6.90
2017,02,12,13,25,6.90
2017,02,12,13,26,6.90
2017,02,12,13,27,6.90
2017,02,12,13,28,6.90
2017,02,12,13,29,6.80
2017,02,12,13,30,6.80
2017,02,12,13,31,6.80
2017,02,12,13,32,6.80
2017,02,12,13,33,6.80
2017,02,12,13,34,6.90
2017,02,12,13,35,6.90
2017,02,12,13,36,6.90
2017,02,12,13,37,6.90
2017,02,12,13,38,6.90
2017,02,12,13,39,6.90
2017,02,12,13,40,6.90
2017,02,12,13,41,7.00
2017,02,12,13,42,7.00
2017,02,12,13,43,7.00
2017,02,12,13,44,7.00
2017,02,12,13,45,7.00
2017,02,12,13,46,7.00
2017,02,12,13,47,6.90
2017,02,12,13,48,6.90
2017,02,12,13,49,6.90
2017,02,12,13,50,6.90
2017,02,12,13,51,6.90
2017,02,12,13,52,6.90
2017,02,12,13,53,6.80
2017,02,12,13,54,6.80
2017,02,12,13,55,6.80
2017,02,12,13,56,6.80
2017,02,12,13,57,6.80
2017,02,12,13,58,6.80
2017,02,12,13,59,6.80
2017,02,12,14,00,6.80
2017,02,12,14,01,6.80
2017,02,12,14,02,6.80
2017,02,12,14,03,6.80
2017,02,12,14,04,6.90
2017,02,12,14,05,6.90
2017,02,12,14,06,6.90
2017,02,12,14,07,6.90
2017,02,12,14,08,7.00
2017,02,12,14,09,7.00
2017,02,12,14,10,7.10
2017,02,12,14,11,7.10
2017,02,12,14,12,7.10
2017,02,12,14,13,7.10
2017,02,12,14,14,7.10
2017,02,12,14,15,7.10
2017,02,12,14,16,7.10
2017,02,12,14,17,7.10
2017,02,12,14,18,7.10
2017,02,12,14,19,7.10
2017,02,12,14,20,7.10
2017,02,12,14,21,7.10
2017,02,12,14,22,7.10
2017,02,12,14,23,7.10
2017,02,12,14,24,7.10
2017,02,12,14,25,7.10
2017,02,12,14,26,7.10
2017,02,12,14,27,7.20
2017,02,12,14,28,7.20
2017,02,12,14,29,7.20
2017,02,12,14,30,7.20
2017,02,12,14,31,7.20
2017,02,12,14,32,7.20
2017,02,12,14,33,7.20
2017,02,12,14,34,7.20
2017,02,12,14,35,7.20
2017,02,12,14,36,7.20
2017,02,12,14,37,7.20
2017,02,12,14,38,7.20
2017,02,12,14,39,7.20
2017,02,12,14,40,7.20
2017,02,12,14,41,7.20
2017,02,12,14,42,7.20
2017,02,12,14,43,7.20
2017,02,12,14,44,7.20
2017,02,12,14,45,7.20
2017,02,12,14,46,7.30
2017,02,12,14,47,7.30
2017,02,12,14,48,7.30
2017,02,12,14,49,7.30
2017,02,12,14,50,7.30
2017,02,12,14,51,7.30
2017,02,12,14,52,7.30
2017,02,12,14,53,7.30
2017,02,12,14,54,7.30
2017,02,12,14,55,7.30
2017,02,12,14,56,7.30
2017,02,12,14,57,7.40
2017,02,12,14,58,7.40
2017,02,12,14,59,7.40
2017,02,12,15,00,7.40
2017,02,12,15,01,7.40
2017,02,12,15,02,7.40
2017,02,12,15,03,7.40
2017,02,12,15,04,7.40
2017,02,12,15,05,7.40
2017,02,12,15,06,7.40
2017,02,12,15,07,7.40
2017,02,12,15,08,7.40
2017,02,12,15,09,7.40
2017,02,12,15,10,7.40
2017,02,12,15,11,7.50
2017,02,12,15,12,7.50
2017,02,12,15,13,7.50
2017,02,12,15,14,7.50
2017,02,12,15,15,7.50
2017,02,12,15,16,7.50
2017,02,12,15,17,7.50
2017,02,12,15,18,7.50
2017,02,12,15,19,7.40
2017,02,12,15,20,7.40
2017,02,12,15,21,7.40
2017,02,12,15,22,7.40
2017,02,12,15,23,7.40
2017,02,12,15,24,7.40
2017,02,12,15,25,7.40
2017,02,12,15,26,7.40
2017,02,12,15,27,7.40
2017,02,12,15,28,7.40
2017,02,12,15,29,7.40
2017,02,12,15,30,7.30
2017,02,12,15,31,7.30
2017,02,12,15,32,7.30
2017,02,12,15,33,7.30
2017,02,12,15,34,7.30
2017,02,12,15,35,7.30
2017,02,12,15,36,7.30
2017,02,12,15,37,7.30
2017,02,12,15,38,7.30
2017,02,12,15,39,7.20
2017,02,12,15,40,7.20
2017,02,12,15,41,7.20
2017,02,12,15,42,7.20
2017,02,12,15,43,7.20
2017,02,12,15,44,7.20
2017,02,12,15,45,7.10
2017,02,12,15,46,7.10
2017,02,12,15,47,7.10
2017,02,12,15,48,7.10
2017,02,12,15,49,7.10
2017,02,12,15,50,7.00
2017,02,12,15,51,7.00
2017,02,12,15,52,7.00
2017,02,12,15,53,7.00
2017,02,12,15,54,7.00
2017,02,12,15,55,6.90
2017,02,12,15,56,6.90
2017,02,12,15,57,6.90
2017,02,12,15,58,6.90
2017,02,12,15,59,6.90
2017,02,12,16,00,7.00
2017,02,12,16,01,6.90
2017,02,12,16,02,7.00
2017,02,12,16,03,7.00
2017,02,12,16,04,7.00
2017,02,12,16,05,7.00
2017,02,12,16,06,7.00
2017,02,12,16,07,7.00
2017,02,12,16,08,6.90
2017,02,12,16,09,7.00
2017,02,12,16,10,6.90
2017,02,12,16,11,6.90
2017,02,12,16,12,6.90
2017,02,12,16,13,6.90
2017,02,12,16,14,6.90
2017,02,12,16,15,6.90
2017,02,12,16,16,6.90
2017,02,12,16,17,6.90
2017,02,12,16,18,6.80
2017,02,12,16,19,6.80
2017,02,12,16,20,6.80
2017,02,12,16,21,6.80
2017,02,12,16,22,6.80
2017,02,12,16,23,6.80
2017,02,12,16,24,6.80
2017,02,12,16,25,6.80
2017,02,12,16,26,6.80
2017,02,12,16,27,6.80
2017,02,12,16,28,6.80
2017,02,12,16,29,6.80
2017,02,12,16,30,6.80
2017,02,12,16,31,6.80
2017,02,12,16,32,6.80
2017,02,12,16,33,6.80
2017,02,12,16,34,6.80
2017,02,12,16,35,6.80
2017,02,12,16,36,6.80
2017,02,12,16,37,6.80
2017,02,12,16,38,6.80
2017,02,12,16,39,6.70
2017,02,12,16,40,6.70
2017,02,12,16,41,6.70
2017,02,12,16,42,6.70
2017,02,12,16,43,6.70
2017,02,12,16,44,6.70
2017,02,12,16,45,6.70
2017,02,12,16,46,6.70
2017,02,12,16,47,6.70
2017,02,12,16,48,6.70
2017,02,12,16,49,6.70
2017,02,12,16,50,6.70
2017,02,12,16,51,6.70
2017,02,12,16,52,6.70
2017,02,12,16,53,6.70
2017,02,12,16,54,6.70
2017,02,12,16,55,6.70
2017,02,12,16,56,6.70
2017,02,12,16,57,6.70
2017,02,12,16,58,6.70
2017,02,12,16,59,6.70
2017,02,12,17,00,6.70
2017,02,12,17,01,6.70
2017,02,12,17,02,6.70
2017,02,12,17,03,6.70
2017,02,12,17,04,6.70
2017,02,12,17,05,6.70
2017,02,12,17,06,6.70
2017,02,12,17,07,6.70
2017,02,12,17,08,6.70
2017,02,12,17,09,6.70
2017,02,12,17,10,6.80
2017,02,12,17,11,6.80
2017,02,12,17,12,6.70
2017,02,12,17,13,6.70
2017,02,12,17,14,6.70
2017,02,12,17,15,6.70
2017,02,12,17,16,6.70
2017,02,12,17,17,6.70
2017,02,12,17,18,6.70
2017,02,12,17,19,6.70
2017,02,12,17,20,6.70
2017,02,12,17,21,6.70
2017,02,12,17,22,6.70
2017,02,12,17,23,6.70
2017,02,12,17,24,6.70
2017,02,12,17,25,6.70
2017,02,12,17,26,6.60
2017,02,12,17,27,6.60
2017,02,12,17,28,6.60
2017,02,12,17,29,6.60
2017,02,12,17,30,6.60
2017,02,12,17,31,6.60
2017,02,12,17,32,6.60
2017,02,12,17,33,6.60
2017,02,12,17,34,6.60
2017,02,12,17,35,6.60
2017,02,12,17,36,6.60
2017,02,12,17,37,6.50
2017,02,12,17,38,6.50
2017,02,12,17,39,6.50
2017,02,12,17,40,6.50
2017,02,12,17,41,6.50
2017,02,12,17,42,6.40
2017,02,12,17,43,6.40
2017,02,12,17,44,6.40
2017,02,12,17,45,6.40
2017,02,12,17,46,6.30
2017,02,12,17,47,6.30
2017,02,12,17,48,6.30
2017,02,12,17,49,6.30
2017,02,12,17,50,6.30
2017,02,12,17,51,6.30
2017,02,12,17,52,6.30
2017,02,12,17,53,6.20
2017,02,12,17,54,6.20
2017,02,12,17,55,6.10
2017,02,12,17,56,6.10
2017,02,12,17,57,6.10
2017,02,12,17,58,6.10
2017,02,12,17,59,6.00
2017,02,12,18,00,6.00
2017,02,12,18,01,5.90
2017,02,12,18,02,5.90
2017,02,12,18,03,5.90
2017,02,12,18,04,5.90
2017,02,12,18,05,5.90
2017,02,12,18,06,5.90